Вернуться в каталог

STARLINK-5651

АктивенСвязьVLEO
NORAD 55357·PAYLOAD·🇺🇸 United States

Запущен Jan 26, 2023 с Cape Canaveral Space Force Station

Loading…

Ближайшие Пролёты (ближайшие 24 часа)

TLE

СвежийSource: CelesTrak SupGP

Эпоха: Sep 14, 2026, 13:24 UTC

1 55357C 23013AC  26257.55881944  .00043575  00000+0  15784-2 0  2577
2 55357  43.0004 316.6720 0001394 271.3413 306.1595 15.27555317    12

Отслеживайте STARLINK-5651 в реальном времени с AllMySat

Download on the App Store